{"data":{"norad_id":58352,"intl_designator":"2023-177B","name":"STARLINK-30907","alt_names":[],"object_type":"PAYLOAD","status":"ACTIVE","operator":null,"country":"US","launch_date":"2023-11-18","launch_site_code":"AFETR","launch_vehicle":null,"mission":null,"orbit_class":"UNKNOWN","rcs_meters":null,"size_class":null,"mass_kg":null,"dimensions":null,"purposes":["comms"],"wikipedia_slug":null,"has_3d_model":false,"image_url":null,"decayed_at":null,"tle_current":{"epoch":"2026-05-24T19:43:22.111680Z","epoch_age_seconds":100622,"freshness":"FRESH","line1":"1 58352U 23177B   26144.82178370  .00001723  00000+0  72126-4 0  9990","line2":"2 58352  43.0021 280.4042 0001620 244.5719 115.4965 15.27584138139969","mean_motion":15.27584138,"eccentricity":0.000162,"inclination_deg":43.0021,"raan_deg":280.4042,"arg_perigee_deg":244.5719,"mean_anomaly_deg":115.4965,"bstar":7.2126e-5,"rev_number":13996,"period_min":94.266493358941,"perigee_km":481.92519526671,"apogee_km":484.14821554726,"semimajor_km":6861.173705407,"source":"CELESTRAK","updated_at":"2026-05-25T13:38:18.584308Z"}}}